Regional Weather Roundup
Issued by NWS Portland, ME

Home | Current Version | Previous Version | Text Only | Print | Product List | Glossary On
Versions: 1 2 3 4 5 6 7 8 9 10 11 12 13 14 15 16 17 18 19 20 21 22 23 24 25 26 27 28 29 30 31 32 33 34 35 36 37 38 39 40 41 42 43 44 45 46 47 48 49 50
000
ASUS41 KGYX 062110
RWRGYX
WEATHER ROUNDUP FOR MAINE AND NEW HAMPSHIRE
NATIONAL WEATHER SERVICE GRAY ME
400 PM EST SAT FEB 06 2016

MEZ002-005-006-010-012-015-018-020-021-024-026-027-029-062200-
MAINE

CITY           SKY/WX    TMP DP  RH WIND       PRES   REMARKS
PORTLAND       PTCLDY    35  27  72 SW10      30.21F
SANFORD        CLEAR     34  27  75 S8        30.21F
BAR HARBOR     PTCLDY    34  27  75 SW13      30.20F
WISCASSET      CLEAR     35  26  69 SW8G17    30.21F
ROCKLAND       CLEAR     35  23  61 SW13      30.20F
FRYEBURG       MOCLDY    36  20  52 SW6       30.15F
LEWISTONAUBURN CLEAR     36  19  51 S13G18    30.16F
AUGUSTA        PTCLDY    34  22  61 S7        30.16F
WATERVILLE     MOCLDY    34  21  59 S7G16     30.12F
BANGOR         CLOUDY    33  21  61 S12       30.16F
GREENVILLE       N/A     28  17  63 S9        30.04S
MILLINOCKET    MOCLDY    32  19  58 VRB5      30.13F
HOULTON        CLOUDY    27  18  69 SW9       30.11F
PRESQUE ISLE   CLOUDY    28  15  58 SW12      30.09S WCI  18
FRENCHVILLE    MOCLDY    25   8  48 SW10G18   30.01F WCI  15
CARIBOU        CLOUDY    29  12  49 SW12      30.06S WCI  19
$$

NHZ002-005-008-009-011-012-014-062200-
NEW HAMPSHIRE

CITY           SKY/WX    TMP DP  RH WIND       PRES   REMARKS
PORTSMOUTH     MOCLDY    35  25  68 S8        30.21F
ROCHESTER      CLEAR     34  26  72 S8G17     30.19F
NASHUA         CLEAR     37  21  52 VRB6      30.22F
MANCHESTER     PTCLDY    37  24  59 S12G18    30.19F
CONCORD        CLEAR     38  19  46 S8        30.18F
LACONIA        PTCLDY    37  16  41 SW15G22   30.16F
PLYMOUTH       CLOUDY    37  18  46 S3        30.14S
BERLIN         CLOUDY    34  18  52 SW12      30.08S
WHITEFIELD     CLOUDY    36  17  46 SW7       30.09S
JAFFREY        SUNNY     34  17  50 S9        30.17F
KEENE          SUNNY     37  18  44 S14       30.19S
LEBANON        CLOUDY    40  18  41 VRB5      30.13S
MT WASHINGTON  SNOW       9   9 100 SW45G58     N/A  VSB 1/16WCI -18
$$

VTZ005-007-008-062200-
VERMONT

CITY           SKY/WX    TMP DP  RH WIND       PRES   REMARKS
ST JOHNSBURY     N/A     38  18  44 MISG      30.09S
MONTPELIER     CLOUDY    34  19  54 SW12      30.14R
BURLINGTON     MOCLDY    36  23  59 S9        30.12S
$$

MAZ007-012-024-CTZ003-RIZ002-NYZ038-NYZ072-062200-
SOUTHERN NEW ENGLAND AND NY

CITY           SKY/WX    TMP DP  RH WIND       PRES   REMARKS
BOSTON         MOCLDY    35  23  61 S12G22    30.27F
WORCESTER      CLOUDY    32  20  61 S13       30.20F
NANTUCKET      PTCLDY    36  25  64 SW14      30.33S
PROVIDENCE     CLOUDY    34  21  59 SW10      30.30F
HARTFORD       PTSUNNY   35  23  61 S13       30.24F
ALBANY         CLOUDY    40  17  39 S12       30.18S
NEW YORK CITY  PTSUNNY   40  19  43 SW12G20   30.30S
$$

ANZ081-ANZ082-ANZ150-NHZ014-MEZ023>029-062200-
COASTAL MARINE OBSERVATIONS

STATION/POSITION TIME  TEMP    WIND        PRES    WAVE
                       AIR SEA DIR/SP/G            HT/PER
                 (UTC) (F)     (DEG/KT/KT) (MB)    (FT/S)
MOUNT DESERT ROC 2100   36     220/ 24/ 26 1023.3F
MATINICUS ROCK   2100          230/ 26/ 29 1023.2F
ISLE OF SHOALS   2100   35     210/ 22/ 24 1023.1F
JEFFREYS LEDGE   2004      44                N/A     4/ 4
CASHES LEDGE BUO 2050   37 43  230/ 19/ 23 1024.1F   4/10
GEORGES BANK BUO 1950   38 45              1027.0    8/ 9
$$

.............KEY..............
   WCI - WIND CHILL
   TC  - TEMPERATURE IN CELSIUS
   VSB - VISIBILITY IN MILES
   HX  - HEAT INDEX
   FAIR- INDICATES FEW OR NO CLOUDS BELOW 12,000 FT, WITH NO
         SIGNIFICANT WEATHER AND/OR OBSTRUCTIONS TO VISIBILITY.





USA.gov is the U.S. government's official web portal to all federal, state and local government web resources and services.